カタログに戻る

TITAN 34D IUS R/B(2)

運用中GEO
NORAD 13643·ROCKET BODY·🇺🇸 United States

打ち上げ Oct 30, 1982 から Cape Canaveral Space Force Station

Loading…

TLE

最新Source: Space-Track

元期: Sep 14, 2026, 19:09 UTC

1 13643U 82106D   26257.79806771  .00000085  00000-0  00000+0 0  9993
2 13643   9.1950 309.5531 0039300  70.4065 307.5105  0.99380136120650

AllMySatでTITAN 34D IUS R/B(2)をリアルタイム追跡

Download on the App Store